Погода в Юркине

Россия / Вологодская область     59°29′22″N   43°34′56″E
темп.,
°C
ветер,
м/с
пор.,
м/с
влажн.,
%
обл.,
%
осадки,
мм/ч
давл.,
гПа
погр.,
м
24 января, пн
пн2400:00−16юз279850 0.0 103398
03:00−16юз399979 0.0 1034156
06:00−15юз399868 0.0 1033164
09:00−13юз3139541 0.0 1033281
12:00−9юз4149121 0.0 1032387
15:00−8юз5158931 0.0 1031479
18:00−10юз5159066 0.0 1030417
21:00−10юз5168797 0.0 1028419
25 января, вт
вт2500:00−10юз517855 0.0 1026443
03:00−10ююз517859 0.0 1024449
06:00−11ююз5178495 0.0 1023465
09:00−11ююз5178491 0.0 1020448
12:00−8ююз5178117 0.0 1018590
15:00−8ююз5168021 0.0 1016612
18:00−10ююз51587100 0.0 1015516
21:00−11ююз41292100 0.0 1015477
26 января, ср
ср2600:00−11ю31095100 0.3 1014354
03:00−13ю3795100 0.9 1014193
06:00−13ю2496100 0.5 1014129
09:00−12ю1296100 1.1 101497
12:00−10ю1192100 0.3 1014191
15:00−9юз019493 0.7 1015157
18:00−14зюз119998 0.1 10169
21:00−16сз1110099 0.1 101611
27 января, чт
чт2700:00−19сз11100100 0.0 101611
03:00−21зсз11100100 0.1 10179
06:00−22з1110097 0.0 10169
09:00−22ююз1110072 0.0 10179
12:00−12ююз23905 0.0 1016138
15:00−12ююв2396100 0.0 101571
18:00−16ююв26100100 0.0 101583
21:00−15ююв3997100 0.0 1015178
28 января, пт
пт2800:00−15ююв3997100 0.0 1014201
03:00−15ююв31097100 0.0 1013245
06:00−15ююв3119797 0.0 1012270
09:00−14ююв41197100 0.1 1011310
12:00−11ююв41194100 0.0 1010395
15:00−10ююв41193100 0.1 1010514
18:00−10ююв41194100 0.0 1009483
21:00−10ююв41194100 0.1 1009454